CAPE
176 304 174 164 125 96 59 65 81 128 146 222 234 228 212 136 81 46 43 66 13 0 0 0 0 0 0 0 0 0 0 0
0 8 236 326 284 405 472 397 287 183 132 129 121 127 129 140 78 71 79 82 79 27 0 0 0 0 0 0 0 0 0 0
0 0 0 7 169 443 703 801 774 591 397 286 215 155 155 164 137 107 113 106 117 86 32 0 0 0 0 0 0 0 0 0
0 0 0 0 0 42 374 638 1010 970 655 578 472 417 369 309 231 237 183 129 138 143 78 44 14 0 0 0 0 0 0 0
0 0 0 0 0 0 0 46 499 1132 971 696 669 589 564 542 460 406 390 254 161 146 148 92 96 31 7 3 0 0 0 0
0 0 0 0 0 0 0 0 15 699 1074 818 823 777 791 758 636 572 515 458 292 177 174 132 156 131 85 66 41 39 0 0
0 0 0 0 0 0 0 0 0 48 839 858 884 834 802 745 848 771 606 422 349 244 179 176 200 159 123 105 115 87 58 39
0 0 0 0 0 0 0 0 0 0 381 762 794 808 846 770 875 959 665 491 385 306 229 235 252 204 151 133 142 147 192 269
0 0 0 0 0 0 0 0 0 0 1 326 516 711 622 598 771 769 749 684 685 692 474 365 335 320 282 277 387 507 563 607
0 0 0 0 0 0 0 0 0 0 0 99 345 537 624 555 626 828 806 1024 1015 979 998 884 848 832 810 692 669 681 689 675
0 0 0 0 0 0 0 0 0 0 0 19 216 447 518 527 592 716 917 1175 1216 1218 1364 1394 1360 1358 1246 946 767 712 701 610
0 0 0 0 0 0 0 0 0 0 0 0 58 324 494 614 711 916 1107 1226 1391 1416 1584 1615 1536 1301 1211 1026 844 736 608 534
0 0 0 0 0 0 0 2 0 0 0 0 38 398 637 768 937 1106 1271 1357 1570 1618 1633 1628 1545 1042 1006 974 912 588 536 478
0 0 0 0 0 0 0 0 63 14 0 0 177 636 736 886 1103 1222 1406 1628 1734 1621 1600 1431 1074 1049 983 840 718 548 342 268
0 0 0 0 0 0 0 3 139 70 7 14 188 597 735 904 1058 1355 1631 1683 1554 1273 1176 1020 971 853 742 557 362 242 89 20
0 0 0 0 0 0 0 0 20 119 160 120 123 346 611 910 1341 1555 1497 1288 975 791 643 724 671 562 353 210 39 0 0 0
0 0 0 0 0 0 0 0 3 134 253 419 534 500 699 891 943 868 458 248 290 272 233 247 145 0 0 0 0 0 0 0
0 0 0 0 0 0 0 0 0 59 254 320 573 409 400 417 554 472 218 114 109 149 77 22 0 0 0 0 0 0 1 1
0 0 0 0 0 0 0 0 0 0 58 337 206 198 308 305 344 264 84 69 69 39 0 0 0 0 0 1 1 2 4 2
CIN
-203 -196 -224 -248 -246 -299 -369 -459 -508 -485 -452 -398 -352 -335 -342 -337 -361 -401 -384 -368 -441 -0 -0 -0 -0 -0 -0 -0 -0 -0 -0 -0
-0 -171 -214 -192 -216 -232 -266 -333 -419 -453 -477 -464 -463 -435 -404 -398 -419 -419 -408 -398 -406 -483 -0 -0 -0 -0 -0 -0 -0 -0 -0 -0
-0 -0 -0 -37 -218 -199 -229 -253 -309 -401 -393 -375 -363 -351 -377 -380 -418 -435 -440 -438 -411 -436 -496 -0 -0 -0 -0 -0 -0 -0 -0 -0
-0 -0 -0 -0 -0 -139 -250 -247 -240 -322 -342 -320 -339 -325 -365 -396 -420 -415 -444 -468 -464 -448 -478 -468 -508 -0 -0 -0 -0 -0 -0 -0
-0 -0 -0 -0 -0 -0 -0 -384 -225 -242 -322 -293 -334 -329 -299 -330 -337 -345 -373 -451 -478 -489 -460 -478 -420 -478 -381 -216 -0 -0 -0 -0
-0 -0 -0 -0 -0 -0 -0 -0 -209 -243 -298 -351 -326 -320 -290 -228 -288 -329 -379 -390 -460 -499 -489 -485 -454 -440 -431 -380 -392 -393 -16 -24
-0 -0 -0 -0 -0 -0 -0 -0 -0 -361 -306 -391 -351 -344 -301 -225 -222 -279 -319 -409 -446 -495 -502 -500 -463 -462 -447 -408 -336 -332 -320 -297
-0 -0 -0 -0 -0 -0 -0 -0 -0 -0 -375 -355 -404 -379 -357 -311 -246 -272 -314 -382 -435 -477 -472 -470 -452 -452 -446 -409 -348 -303 -221 -144
-0 -0 -0 -0 -0 -0 -0 -0 -0 -0 -48 -435 -398 -388 -408 -372 -321 -280 -327 -344 -353 -342 -381 -408 -408 -382 -373 -342 -259 -191 -130 -85
-0 -0 -0 -0 -0 -0 -0 -0 -0 -0 -0 -541 -440 -426 -440 -405 -384 -346 -320 -304 -280 -291 -279 -281 -252 -223 -200 -210 -194 -156 -111 -83
-0 -0 -0 -0 -0 -0 -0 -0 -0 -0 -0 -433 -436 -425 -458 -475 -434 -378 -330 -285 -259 -246 -217 -185 -148 -110 -101 -141 -161 -134 -107 -113
-0 -0 -0 -0 -0 -0 -0 -0 -0 -0 -0 -0 -523 -426 -448 -479 -446 -388 -322 -272 -228 -213 -187 -153 -130 -129 -110 -119 -129 -115 -111 -118
-0 -0 -0 -0 -0 -0 -0 -104 -0 -0 -0 -0 -583 -468 -435 -432 -400 -356 -294 -248 -198 -183 -167 -144 -127 -177 -152 -131 -110 -151 -129 -119
-0 -0 -0 -0 -0 -0 -0 -0 -422 -205 -0 -0 -532 -453 -425 -402 -349 -311 -241 -190 -167 -173 -165 -176 -209 -182 -166 -163 -154 -159 -171 -160
-0 -0 -0 -0 -0 -0 -0 -91 -372 -531 -297 -672 -534 -438 -396 -359 -314 -244 -192 -184 -194 -240 -240 -231 -209 -201 -198 -198 -208 -210 -258 -146
-0 -0 -0 -0 -0 -0 -0 -0 -227 -417 -465 -536 -567 -469 -368 -280 -214 -183 -200 -239 -286 -302 -304 -261 -245 -242 -262 -267 -342 -0 -0 -0
-0 -0 -0 -0 -0 -0 -0 -0 -199 -329 -341 -303 -297 -344 -309 -284 -259 -248 -381 -454 -414 -402 -387 -363 -365 -0 -0 -0 -0 -0 -0 -0
-0 -0 -0 -0 -0 -0 -0 -0 -0 -329 -281 -300 -216 -310 -343 -373 -323 -334 -460 -509 -503 -457 -472 -509 -0 -0 -0 -0 -0 -0 -0 -0
-0 -0 -0 -0 -0 -0 -0 -0 -0 -0 -350 -257 -376 -380 -320 -334 -360 -393 -551 -554 -520 -528 -0 -0 -0 -0 -0 -0 -0 -0 -0 -0
Wind_Speed
17 16 14 12 10 10 10 10 13 13 10 11 11 13 16 20 21 21 21 21 22 21 19 17 15 15 14 13 12 8 8 7
23 20 17 16 14 13 13 13 13 13 14 13 13 14 14 17 20 21 20 20 21 22 20 17 16 16 16 14 14 14 11 8
30 27 23 20 17 16 15 17 16 16 16 16 15 14 13 13 13 18 19 20 19 19 19 17 16 15 15 14 13 13 12 11
35 33 30 26 25 20 19 20 20 19 19 18 16 16 17 15 15 15 17 20 20 19 18 16 14 13 12 12 12 13 12 10
44 42 37 32 32 27 25 22 22 21 20 19 19 19 18 17 17 17 15 17 19 18 17 16 15 13 12 11 11 12 12 12
46 46 42 40 35 33 28 24 23 22 21 22 20 20 19 19 19 18 16 15 16 17 16 16 16 14 14 13 12 12 12 13
44 42 40 39 35 33 29 25 23 24 23 22 22 21 20 21 20 20 19 18 16 16 16 16 15 15 15 14 14 13 13 12
39 39 38 35 33 31 30 26 25 22 22 22 22 22 23 24 24 23 22 21 19 17 17 16 15 15 14 14 13 13 13 13
34 38 35 35 32 30 28 28 27 24 24 25 25 24 26 27 28 26 24 23 21 19 17 16 15 14 14 14 14 13 13 13
38 31 30 31 28 25 25 27 29 28 26 25 26 26 27 27 28 28 26 23 22 20 17 16 15 14 14 14 14 14 14 14
35 31 29 29 29 29 29 29 32 32 31 29 29 29 29 29 28 27 26 24 23 21 18 17 16 15 15 15 15 15 16 16
34 32 29 25 30 33 34 35 37 39 38 34 32 32 32 29 27 26 25 23 22 21 19 18 17 17 16 16 17 17 17 17
34 35 35 35 31 31 34 35 37 38 39 37 35 34 32 30 27 25 24 23 21 21 20 19 18 17 16 17 17 18 18 19
35 33 33 34 34 34 35 36 38 39 39 37 36 35 32 30 27 26 24 22 21 20 19 19 18 17 17 17 18 18 19 20
38 36 34 33 33 34 35 35 35 37 37 35 34 32 31 29 26 25 24 22 21 20 18 17 17 16 17 17 18 19 20 21
45 42 40 38 37 35 35 35 34 33 34 35 33 29 28 27 25 23 23 22 21 19 18 17 16 16 16 16 17 17 17 19
48 46 45 42 40 39 37 36 35 31 30 31 29 27 27 26 25 23 22 21 19 18 18 17 17 17 15 14 14 16 16 16
52 50 47 46 42 40 39 37 35 34 31 28 27 26 26 27 26 24 23 22 20 19 19 18 18 17 15 13 12 14 14 14
49 46 43 41 39 40 40 39 37 34 33 30 27 28 28 28 28 27 24 23 22 20 19 18 17 17 13 11 11 12 13 12
Wind_Direction
252 250 244 238 232 221 222 214 200 197 204 198 199 194 192 192 192 192 190 190 190 191 192 191 188 192 195 198 204 220 232 256
261 259 254 252 246 240 230 226 223 215 210 215 215 211 208 200 199 198 196 195 194 194 196 195 196 199 202 203 206 212 219 236
261 264 264 260 249 242 239 230 235 228 224 224 235 243 238 231 218 205 206 203 202 201 200 201 201 204 208 209 211 217 225 226
261 264 266 267 265 255 243 247 242 238 228 244 247 259 263 258 239 233 223 213 210 210 210 211 213 214 222 224 222 223 233 236
262 265 267 268 269 269 265 253 245 240 235 239 233 237 248 248 258 258 249 227 219 218 220 219 222 230 238 243 239 234 234 241
265 265 268 269 271 271 270 261 248 240 237 233 240 243 246 261 262 266 257 252 231 226 228 227 232 239 250 252 251 243 241 241
267 269 270 270 272 272 270 262 252 245 239 232 236 243 246 259 258 261 262 259 256 242 238 240 243 246 249 255 254 251 250 249
269 270 270 269 271 271 269 262 257 245 237 238 238 240 254 258 261 261 261 260 257 256 248 249 252 253 256 261 262 259 257 260
278 272 272 271 271 272 268 260 258 252 247 248 251 251 259 264 262 259 260 260 261 262 257 256 258 261 263 264 270 270 271 271
281 279 274 274 272 271 269 264 261 259 254 254 255 258 257 264 263 255 258 260 262 260 259 258 262 264 267 270 273 275 277 282
278 282 281 274 273 274 273 270 267 265 262 260 260 259 261 265 264 252 252 257 258 258 258 261 265 268 271 274 279 282 284 288
275 278 281 283 280 276 275 274 272 268 266 265 262 261 262 262 257 251 251 253 251 254 256 261 267 269 273 277 281 286 286 290
279 277 277 278 283 283 278 277 277 273 269 266 264 263 260 258 252 247 248 248 247 250 255 261 266 270 272 276 281 286 289 293
281 280 281 280 281 284 284 283 280 276 271 267 263 260 256 253 247 246 245 245 243 248 254 259 263 267 273 279 285 289 293 297
276 279 281 283 285 285 285 287 287 282 273 268 263 259 254 250 245 241 241 239 242 247 252 257 263 269 277 282 289 294 299 302
273 275 277 280 283 286 286 288 290 286 277 269 265 258 251 246 240 237 238 240 244 248 250 256 263 271 277 284 292 299 304 309
273 276 275 277 279 281 285 286 288 290 283 272 266 258 249 243 241 238 239 241 242 244 251 256 263 272 277 283 294 302 309 313
273 273 276 276 277 279 280 283 286 283 283 276 266 259 251 246 242 242 241 240 241 244 251 257 264 271 276 283 293 303 310 316
274 275 276 275 278 277 278 279 280 280 278 276 269 259 253 249 246 246 244 243 241 245 251 255 262 271 271 279 293 306 310 317